Home > Weather > Valletta > Past weeks

Flag for Malta Past Weather in Valletta, Malta — Yesterday and Last 2 Weeks

Now
86 °F

Passing clouds.


Feels Like: 87 °F
Forecast: 75 / 86 °F
Wind: 9 mph from Northwest

Location: Luqa

Current Time: Aug 28, 2016 at 12:50:26 PM

Latest Report: Aug 28, 2016 at 11:45 AM


Visibility: N/A

Pressure: 30.15 "Hg

Humidity: 49%

Dew Point: 64 °F

Location of VallettaLocation

Past Weather in Valletta — Graph

°F

Valletta Temperature Yesterday

Maximum temperature yesterday: 84 °F (at 3:15 PM)
Minimum temperature yesterday: 73 °F (at 6:15 AM)
Average temperature yesterday: 79 °F

High & Low Weather Summary for the Past Weeks

 TemperatureHumidityPressure
High93 °F (Aug 21, 12:15 PM)94% (Aug 17, 4:15 AM)30.18 "Hg (Aug 17, 4:15 AM)
Low70 °F (Aug 15, 5:15 AM)24% (Aug 16, 3:45 PM)29.86 "Hg (Aug 18, 4:45 PM)
Average78 °F68%30.01 "Hg
* Reported Aug 13 11:15 AM — Aug 28 11:45 AM, Valletta, Weather by CustomWeather, © 2016

Note: Actual official high and low records may vary slightly from our data, if they occured in-between our weather recording intervals... More about our weather records

Advertising

Valletta Weather History for the Previous 24 Hours

Scroll right to see more
 ConditionsComfort  
Time TempWeatherWind HumidityBarometerVisibility
11:45 AM
Sun, Aug 28
86 °FPassing clouds.9 mph49%30.15 "HgN/A
11:15 AM86 °FPassing clouds.10 mph52%30.15 "HgN/A
10:45 AM84 °FPassing clouds.9 mph58%30.15 "HgN/A
10:15 AM82 °FPassing clouds.10 mph62%30.12 "HgN/A
9:45 AM82 °FPassing clouds.9 mph66%30.12 "HgN/A
9:15 AM81 °FSunny.12 mph70%30.12 "Hg10 mi
8:45 AM79 °FPassing clouds.12 mph74%30.12 "HgN/A
8:15 AM77 °FPassing clouds.10 mph83%30.12 "HgN/A
7:45 AM75 °FPassing clouds.8 mph89%30.12 "Hg6 mi
7:15 AM73 °FPassing clouds.7 mph94%30.12 "HgN/A
6:45 AM73 °FPassing clouds.5 mph89%30.09 "Hg4 mi
6:15 AM73 °FPassing clouds.5 mph89%30.09 "Hg4 mi
5:45 AM73 °FClear.3 mph89%30.09 "Hg5 mi
5:15 AM73 °FClear.3 mph89%30.09 "Hg10 mi
4:45 AM73 °FClear.6 mph89%30.09 "Hg10 mi
4:15 AM73 °FMild.5 mph89%30.09 "Hg6 mi
3:45 AM73 °FClear.5 mph89%30.09 "Hg10 mi
3:15 AM73 °FClear.3 mph89%30.09 "Hg10 mi
2:45 AM73 °FClear.5 mph89%30.09 "Hg10 mi
2:15 AM75 °FClear.6 mph83%30.09 "Hg10 mi
1:45 AM75 °FClear.6 mph83%30.12 "Hg10 mi
1:15 AM75 °FClear.5 mph83%30.12 "Hg10 mi
12:45 AM75 °FPassing clouds.3 mph83%30.12 "HgN/A
12:15 AM75 °FClear.3 mph83%30.12 "Hg10 mi
11:45 PM
Sat, Aug 27
77 °FClear.3 mph79%30.12 "Hg10 mi
11:15 PM77 °FClear.2 mph79%30.12 "Hg10 mi
10:45 PM77 °FClear.5 mph79%30.12 "Hg10 mi
10:15 PM77 °FClear.5 mph79%30.12 "Hg10 mi
9:45 PM77 °FClear.6 mph79%30.12 "Hg10 mi
9:15 PM77 °FPassing clouds.6 mph79%30.12 "HgN/A
8:45 PM79 °FPassing clouds.3 mph74%30.12 "HgN/A
8:15 PM79 °FPassing clouds.5 mph74%30.09 "HgN/A
7:45 PM79 °FPassing clouds.6 mph74%30.09 "HgN/A
7:15 PM81 °FPassing clouds.7 mph70%30.09 "HgN/A
6:45 PM81 °FScattered clouds.6 mph66%30.09 "HgN/A
6:15 PM82 °FScattered clouds.2 mph62%30.09 "HgN/A
5:45 PM82 °FScattered clouds.3 mph66%30.09 "HgN/A
5:15 PM82 °FScattered clouds.3 mph62%30.09 "HgN/A
4:45 PM84 °FScattered clouds.6 mph62%30.09 "HgN/A
4:15 PM84 °FScattered clouds.5 mph58%30.09 "HgN/A
3:45 PM84 °FScattered clouds.6 mph58%30.09 "HgN/A
3:15 PM84 °FScattered clouds.5 mph62%30.09 "HgN/A
2:45 PM82 °FScattered clouds.5 mph70%30.12 "HgN/A
2:15 PM81 °FPartly sunny.5 mph74%30.12 "HgN/A
1:45 PM82 °FPartly sunny.7 mph66%30.12 "HgN/A
1:15 PM82 °FScattered clouds.8 mph66%30.12 "HgN/A
12:45 PM81 °FScattered clouds.7 mph70%30.12 "HgN/A
12:15 PM81 °FPartly sunny.5 mph70%30.12 "HgN/A
Weather by CustomWeather, © 2016

See weather overviewHow to use our weather pages